User: anonymous   Login
Location: ??????
(30.5519°N, 47.7720°E)
Time: 20:21:34
(UTC+00:00)
Language:

Milstar 3 - Orbit

View from above orbital plane
View from above orbital plane
View from above satellite
View from above satellite

Ground track
Ground track

The orbit data is extracted from the following two-line orbital elements,

1 25724U 99023A   21097.69297768 0.00000030  00000-0  36842-3 0    08
2 25724  28.2666 199.8412 2139793   1.3330 358.6665  9.37483677    03
Epoch (UTC): 07 April 2021 16:37:53
Eccentricity: 0.2139793
inclination: 28.2666°
perigee height: 1089 km
apogee height: 5155 km
right ascension of ascending node: 199.8412°
argument of perigee: 1.3330°
revolutions per day: 9.37483677
mean anomaly at epoch: 358.6665°
orbit number at epoch: 0

The dashed part of the orbit path shows where the satellite is in the earth's shadow,  

DLR